N0IAE Weather Reports


time (UTC)temp
C
wind
direction
speed
KPH
gust
KPH
rain 1hr
cm
rain 24hr
cm
rain mn
cm
humidity
%
barometer
mb
20260504190048 22 8 3.2 11.3 0.00 0.00 0.00 29 1004.0
20260504184546 22 342 3.2 9.7 0.00 0.00 0.00 30 1003.9
20260504183041 22 342 3.2 9.7 0.00 0.00 0.00 32 1003.9
20260504181536 22 13 1.6 11.3 0.00 0.00 0.00 29 1003.7
20260504180035 22 354 3.2 11.3 0.00 0.00 0.00 32 1003.6
20260504174546 22 338 3.2 8.0 0.00 0.00 0.00 31 1003.5
20260504173041 22 300 3.2 8.0 0.00 0.00 0.00 31 1003.4
20260504171548 21 98 1.6 6.4 0.00 0.00 0.00 35 1003.3
20260504090104 12 0 0.0 1.6 0.00 0.00 0.00 55 1002.8
20260504081541 12 0 0.0 1.6 0.00 0.00 0.00 57 1003.2
20260504044540 15 0 0.0 1.6 0.00 0.00 0.00 46 1005.7
20260504043050 15 0 0.0 0.0 0.00 0.00 0.00 46 1005.8
20260504041541 15 0 0.0 0.0 0.00 0.00 0.00 45 1006.1
20260504040042 16 0 0.0 0.0 0.00 0.00 0.00 44 1006.4
20260504034536 16 0 0.0 0.0 0.00 0.00 0.00 43 1006.5
20260504033037 16 0 0.0 1.6 0.00 0.00 0.00 42 1006.7
20260504031542 17 0 0.0 1.6 0.00 0.00 0.00 42 1006.7
20260504030044 17 0 0.0 0.0 0.00 0.00 0.00 40 1006.8
20260504024537 17 0 0.0 0.0 0.00 0.00 0.00 39 1006.9
20260504023037 17 0 0.0 0.0 0.00 0.00 0.00 40 1006.8
20260504021535 17 0 0.0 0.0 0.00 0.00 0.00 39 1006.9
20260504020034 18 0 0.0 0.0 0.00 0.00 0.00 38 1006.9
20260504014546 18 0 0.0 0.0 0.00 0.00 0.00 36 1006.9
20260504013051 19 0 0.0 0.0 0.00 0.00 0.00 35 1006.9
20260504011539 20 0 0.0 1.6 0.00 0.00 0.00 34 1006.9
20260504010039 21 0 0.0 1.6 0.00 0.00 0.00 32 1007.1
20260504004555 21 264 0.0 8.0 0.00 0.00 0.00 31 1007.4
20260504003042 21 275 1.6 4.8 0.00 0.00 0.00 31 1007.5
20260504001541 22 325 0.0 4.8 0.00 0.00 0.00 31 1007.6
20260504000043 22 290 3.2 6.4 0.00 0.00 0.00 29 1007.7
20260503234535 22 302 4.8 9.7 0.00 0.00 0.00 29 1007.8
20260503233047 22 309 1.6 4.8 0.00 0.00 0.00 27 1007.9
20260503231542 22 321 1.6 9.7 0.00 0.00 0.00 28 1008.1
20260503230041 22 299 3.2 14.5 0.00 0.00 0.00 28 1008.1
20260503224541 23 285 3.2 8.0 0.00 0.00 0.00 27 1008.3
20260503223037 22 321 3.2 16.1 0.00 0.00 0.00 28 1008.4
20260503221537 23 314 3.2 9.7 0.00 0.00 0.00 28 1008.2
20260503220048 23 226 4.8 8.0 0.00 0.00 0.00 26 1008.4
20260503214543 23 243 4.8 9.7 0.00 0.00 0.00 27 1008.5
20260503213040 23 250 1.6 14.5 0.00 0.00 0.00 28 1008.6
20260503211539 23 255 1.6 3.2 0.00 0.00 0.00 30 1008.9
20260503210047 23 299 3.2 6.4 0.00 0.00 0.00 27 1009.1
20260503204542 23 311 1.6 6.4 0.00 0.00 0.00 30 1009.2
20260503203049 23 257 1.6 6.4 0.00 0.00 0.00 27 1009.6
20260503201545 23 14 3.2 8.0 0.00 0.00 0.00 29 1009.7
20260503200040 23 265 3.2 9.7 0.00 0.00 0.00 29 1009.8
20260503194535 23 330 1.6 6.4 0.00 0.00 0.00 31 1009.9
20260503193040 23 255 1.6 6.4 0.00 0.00 0.00 29 1009.9
20260503191543 23 300 3.2 8.0 0.00 0.00 0.00 31 1010.1